Retour au catalogue

STARLINK-36338

ActifCommunicationsSSO
NORAD 67704·PAYLOAD·🇺🇸 United States

Lancé Feb 7, 2026 depuis Vandenberg Space Force Base

Loading…

Prochains Passages (prochaines 24 heures)

TLE

FraisSource: CelesTrak SupGP

Époque: Sep 14, 2026, 20:33 UTC

1 67704C 26025M   26257.85673611 -.00010336  00000+0 -32077-3 0  2571
2 67704  97.2858   7.7811 0000936 105.2673  25.8705 15.33453695    13

Suivez STARLINK-36338 en temps réel avec AllMySat

Download on the App Store